UAE803 OMDB-OEJN

Flight info

Callsign UAE803
Flight time 2h 48m
Altitude 40000
Route KUTLI L519 ATUDO M318 GOLGU M550 RIBOT DCT MIGMA DCT ITRUX Y511 ASMIS T218 IMGUT M309 VEMEM
Aircraft A388/J-SADE2E3FGHIJ3J4J5M1RWXY/LB1D1

Departure

Time 2026-04-21 10:56
Airport Dubai International Airport (OMDB)

Arrival

Time 2026-04-21 13:45
Airport King Abdulaziz International Airport (OEJN)
Time Latitude Longitude Altitude Speed Heading
2026-04-21 09:42 25.24306 55.37446 26 ft 0 kts 211°
2026-04-21 10:48 25.24316 55.37453 31 ft 4 kts 211°
2026-04-21 10:48 25.24340 55.37468 29 ft 4 kts 211°
2026-04-21 10:49 25.24359 55.37481 26 ft 4 kts 204°
2026-04-21 10:49 25.24383 55.37487 27 ft 4 kts 160°
2026-04-21 10:49 25.24403 55.37470 32 ft 4 kts 123°
2026-04-21 10:49 25.24416 55.37446 32 ft 4 kts 122°
2026-04-21 10:50 25.24429 55.37423 32 ft 2 kts 122°
2026-04-21 10:50 25.24430 55.37422 31 ft 0 kts 122°
2026-04-21 10:52 25.24425 55.37431 32 ft 4 kts 121°
2026-04-21 10:52 25.24400 55.37476 30 ft 9 kts 121°
2026-04-21 10:53 25.24359 55.37551 28 ft 13 kts 121°
2026-04-21 10:53 25.24304 55.37649 31 ft 16 kts 122°
2026-04-21 10:53 25.24260 55.37738 26 ft 8 kts 88°
2026-04-21 10:53 25.24295 55.37793 26 ft 11 kts 34°
2026-04-21 10:54 25.24368 55.37849 27 ft 14 kts 34°
2026-04-21 10:54 25.24453 55.37914 29 ft 16 kts 34°
2026-04-21 10:54 25.24550 55.37987 29 ft 19 kts 34°
2026-04-21 10:54 25.24666 55.38071 29 ft 20 kts 31°
2026-04-21 10:55 25.24739 55.38109 31 ft 8 kts 345°
2026-04-21 10:55 25.24786 55.38062 30 ft 17 kts 302°
2026-04-21 10:55 25.25012 55.37656 30 ft 103 kts 303°
2026-04-21 10:55 25.25496 55.36778 28 ft 160 kts 302°
2026-04-21 10:56 25.26109 55.35662 220 ft 181 kts 301°
2026-04-21 10:56 25.26749 55.34501 731 ft 179 kts 301°
2026-04-21 10:56 25.27405 55.33324 1287 ft 180 kts 301°
2026-04-21 10:56 25.28066 55.32137 1781 ft 185 kts 301°
2026-04-21 10:57 25.28762 55.30891 2147 ft 193 kts 301°
2026-04-21 10:57 25.29317 55.29548 2526 ft 197 kts 276°
2026-04-21 10:57 25.29081 55.28090 3060 ft 194 kts 244°
2026-04-21 10:57 25.28464 55.26715 3356 ft 205 kts 242°
2026-04-21 10:58 25.27819 55.25298 3696 ft 208 kts 243°
2026-04-21 10:58 25.27192 55.23875 4093 ft 208 kts 244°
2026-04-21 10:58 25.26556 55.22410 4503 ft 208 kts 244°
2026-04-21 10:58 25.25934 55.20964 4858 ft 211 kts 245°
2026-04-21 10:59 25.25305 55.19478 4965 ft 222 kts 245°
2026-04-21 10:59 25.24628 55.17873 5049 ft 233 kts 245°
2026-04-21 10:59 25.23918 55.16242 5147 ft 248 kts 241°
2026-04-21 10:59 25.23016 55.14547 5486 ft 265 kts 240°
2026-04-21 11:00 25.22062 55.12723 5897 ft 281 kts 241°
2026-04-21 11:00 25.21073 55.10823 6719 ft 281 kts 241°
2026-04-21 11:00 25.20121 55.08930 7447 ft 284 kts 245°
2026-04-21 11:00 25.19369 55.06931 8150 ft 287 kts 249°
2026-04-21 11:01 25.18617 55.04879 8859 ft 290 kts 249°
2026-04-21 11:01 25.17850 55.02811 9552 ft 293 kts 249°
2026-04-21 11:01 25.17071 55.00722 10267 ft 295 kts 249°
2026-04-21 11:02 25.15434 54.96424 10714 ft 332 kts 243°
2026-04-21 11:02 25.13958 54.94395 11103 ft 346 kts 220°
2026-04-21 11:02 25.11855 54.93094 11806 ft 352 kts 200°
2026-04-21 11:02 25.09422 54.92688 12543 ft 357 kts 181°
2026-04-21 11:03 25.06930 54.92720 13229 ft 360 kts 181°
2026-04-21 11:03 25.04424 54.92731 13905 ft 363 kts 182°
2026-04-21 11:03 25.01888 54.92761 14581 ft 366 kts 179°
2026-04-21 11:03 24.99338 54.92946 15221 ft 369 kts 179°
2026-04-21 11:04 24.96767 54.93124 15873 ft 372 kts 179°
2026-04-21 11:04 24.94172 54.93301 16504 ft 375 kts 179°
2026-04-21 11:04 24.91559 54.93482 17108 ft 378 kts 179°
2026-04-21 11:04 24.88948 54.93629 17700 ft 378 kts 184°
2026-04-21 11:05 24.86314 54.93277 18263 ft 377 kts 197°
2026-04-21 11:05 24.83854 54.92320 18833 ft 375 kts 208°
2026-04-21 11:05 24.81564 54.90939 19321 ft 377 kts 212°
2026-04-21 11:05 24.79281 54.89554 19842 ft 380 kts 211°
2026-04-21 11:06 24.76949 54.88162 20346 ft 383 kts 211°
2026-04-21 11:06 24.74561 54.86743 20836 ft 386 kts 211°
2026-04-21 11:06 24.72227 54.85357 21310 ft 389 kts 211°
2026-04-21 11:06 24.69834 54.83933 21799 ft 391 kts 211°
2026-04-21 11:07 24.67443 54.82498 22234 ft 394 kts 212°
2026-04-21 11:07 24.65059 54.80983 22709 ft 396 kts 213°
2026-04-21 11:07 24.62684 54.79439 23127 ft 399 kts 213°
2026-04-21 11:07 24.60260 54.77867 23558 ft 402 kts 213°
2026-04-21 11:08 24.57860 54.76320 24004 ft 404 kts 213°
2026-04-21 11:08 24.55436 54.74766 24419 ft 407 kts 213°
2026-04-21 11:08 24.52959 54.73181 24844 ft 409 kts 213°
2026-04-21 11:08 24.50484 54.71593 25232 ft 413 kts 213°
2026-04-21 11:09 24.48034 54.70018 25628 ft 415 kts 213°
2026-04-21 11:09 24.45545 54.68417 26029 ft 419 kts 213°
2026-04-21 11:09 24.43026 54.66800 26434 ft 422 kts 213°
2026-04-21 11:09 24.40467 54.65163 26901 ft 424 kts 212°
2026-04-21 11:10 24.37909 54.63530 27332 ft 427 kts 212°
2026-04-21 11:10 24.35321 54.61879 27754 ft 431 kts 212°
2026-04-21 11:10 24.32719 54.60219 28233 ft 434 kts 212°
2026-04-21 11:10 24.30096 54.58545 28675 ft 438 kts 212°
2026-04-21 11:11 24.27493 54.56811 29129 ft 440 kts 216°
2026-04-21 11:11 24.25085 54.54728 29546 ft 441 kts 226°
2026-04-21 11:11 24.23119 54.52148 30044 ft 442 kts 236°
2026-04-21 11:11 24.21466 54.49298 30446 ft 446 kts 240°
2026-04-21 11:12 24.20441 54.47334 30801 ft 446 kts 242°
2026-04-21 11:12 24.18919 54.44313 31286 ft 448 kts 242°
2026-04-21 11:12 24.17436 54.41358 31778 ft 450 kts 242°
2026-04-21 11:12 24.15915 54.38353 32238 ft 452 kts 243°
2026-04-21 11:13 24.14357 54.35303 32676 ft 454 kts 243°
2026-04-21 11:13 24.12813 54.32298 33151 ft 455 kts 243°
2026-04-21 11:13 24.11252 54.29269 33591 ft 457 kts 243°
2026-04-21 11:13 24.09683 54.26225 34018 ft 459 kts 243°
2026-04-21 11:14 24.08135 54.23223 34480 ft 460 kts 243°
2026-04-21 11:14 24.06563 54.20175 34981 ft 460 kts 244°
2026-04-21 11:14 24.04969 54.17092 35587 ft 457 kts 244°
2026-04-21 11:14 24.03411 54.14082 36228 ft 453 kts 245°
2026-04-21 11:15 24.01885 54.11132 36849 ft 450 kts 246°
2026-04-21 11:15 24.00329 54.08130 37481 ft 445 kts 246°
2026-04-21 11:15 23.98815 54.05224 38133 ft 439 kts 247°
2026-04-21 11:15 23.97314 54.02377 38804 ft 433 kts 248°
2026-04-21 11:16 23.95815 53.99555 39437 ft 427 kts 249°
2026-04-21 11:16 23.94308 53.96707 39754 ft 429 kts 249°
2026-04-21 11:16 23.91299 53.90995 39794 ft 437 kts 248°
2026-04-21 11:17 23.88248 53.85245 39795 ft 434 kts 248°
2026-04-21 11:17 23.85232 53.79571 39795 ft 435 kts 248°
2026-04-21 11:18 23.82196 53.73850 39794 ft 435 kts 248°
2026-04-21 11:18 23.79155 53.68124 39807 ft 437 kts 248°
2026-04-21 11:19 23.76104 53.62384 39829 ft 438 kts 248°
2026-04-21 11:19 23.73050 53.56640 39823 ft 438 kts 248°
2026-04-21 11:20 23.69971 53.50883 39821 ft 439 kts 248°
2026-04-21 11:20 23.66920 53.45134 39812 ft 438 kts 248°
2026-04-21 11:21 23.63880 53.39384 39810 ft 438 kts 248°
2026-04-21 11:21 23.60828 53.33637 39808 ft 438 kts 248°
2026-04-21 11:22 23.57781 53.27894 39808 ft 437 kts 248°
2026-04-21 11:22 23.54741 53.22179 39812 ft 435 kts 248°
2026-04-21 11:23 23.51701 53.16472 39807 ft 435 kts 248°
2026-04-21 11:23 23.48691 53.10821 39807 ft 435 kts 248°
2026-04-21 11:24 23.45617 53.05070 39808 ft 436 kts 248°
2026-04-21 11:24 23.42564 52.99369 39806 ft 436 kts 248°
2026-04-21 11:25 23.39524 52.93660 39813 ft 435 kts 249°
2026-04-21 11:25 23.36591 52.87915 39810 ft 435 kts 249°
2026-04-21 11:26 23.33656 52.82159 39812 ft 435 kts 249°
2026-04-21 11:26 23.30705 52.76406 39824 ft 436 kts 249°
2026-04-21 11:27 23.27749 52.70665 39812 ft 436 kts 249°
2026-04-21 11:27 23.24785 52.64916 39802 ft 435 kts 249°
2026-04-21 11:28 23.21831 52.59185 39811 ft 434 kts 249°
2026-04-21 11:28 23.18920 52.53438 39812 ft 431 kts 251°
2026-04-21 11:29 23.16658 52.47487 39809 ft 424 kts 258°
2026-04-21 11:29 23.14759 52.41420 39830 ft 424 kts 258°
2026-04-21 11:30 23.12837 52.35360 39839 ft 424 kts 258°
2026-04-21 11:30 23.10916 52.29311 39844 ft 424 kts 258°
2026-04-21 11:31 23.08984 52.23235 39846 ft 425 kts 258°
2026-04-21 11:31 23.07054 52.17169 39845 ft 425 kts 258°
2026-04-21 11:32 23.05119 52.11103 39841 ft 425 kts 257°
2026-04-21 11:32 23.03179 52.05033 39842 ft 426 kts 257°
2026-04-21 11:33 23.01241 51.98968 39846 ft 426 kts 257°
2026-04-21 11:33 22.99309 51.92939 39852 ft 425 kts 257°
2026-04-21 11:34 22.97371 51.86883 39846 ft 425 kts 257°
2026-04-21 11:34 22.95415 51.80791 39842 ft 424 kts 257°
2026-04-21 11:35 22.93484 51.74791 39833 ft 424 kts 257°
2026-04-21 11:35 22.91539 51.68758 39837 ft 424 kts 257°
2026-04-21 11:36 22.89583 51.62692 39839 ft 425 kts 257°
2026-04-21 11:36 22.87632 51.56650 39828 ft 426 kts 257°
2026-04-21 11:37 22.85766 51.50566 39821 ft 423 kts 261°
2026-04-21 11:37 22.84617 51.44362 39833 ft 417 kts 268°
2026-04-21 11:38 22.84242 51.38116 39821 ft 413 kts 274°
2026-04-21 11:38 22.84222 51.31887 39828 ft 413 kts 274°
2026-04-21 11:39 22.84182 51.25657 39839 ft 413 kts 273°
2026-04-21 11:39 22.84131 51.19439 39840 ft 413 kts 273°
2026-04-21 11:40 22.84090 51.13221 39838 ft 412 kts 274°
2026-04-21 11:40 22.84048 51.07016 39837 ft 412 kts 273°
2026-04-21 11:41 22.83992 51.00806 39831 ft 412 kts 273°
2026-04-21 11:41 22.83939 50.94598 39826 ft 411 kts 273°
2026-04-21 11:42 22.83885 50.88409 39834 ft 411 kts 273°
2026-04-21 11:42 22.83827 50.82221 39823 ft 411 kts 273°
2026-04-21 11:43 22.83764 50.76023 39833 ft 410 kts 273°
2026-04-21 11:43 22.83703 50.69856 39834 ft 410 kts 273°
2026-04-21 11:44 22.83640 50.63657 39834 ft 410 kts 273°
2026-04-21 11:44 22.83573 50.57477 39823 ft 411 kts 273°
2026-04-21 11:45 22.83500 50.51281 39833 ft 411 kts 272°
2026-04-21 11:45 22.83422 50.45076 39838 ft 412 kts 273°
2026-04-21 11:46 22.83352 50.38868 39842 ft 412 kts 273°
2026-04-21 11:46 22.83278 50.32667 39840 ft 412 kts 272°
2026-04-21 11:47 22.83198 50.26456 39839 ft 412 kts 272°
2026-04-21 11:47 22.83119 50.20289 39830 ft 412 kts 272°
2026-04-21 11:48 22.83035 50.14088 39841 ft 411 kts 272°
2026-04-21 11:48 22.82949 50.07850 39846 ft 411 kts 272°
2026-04-21 11:49 22.82861 50.01703 39846 ft 411 kts 272°
2026-04-21 11:49 22.82768 49.95510 39855 ft 411 kts 272°
2026-04-21 11:50 22.82675 49.89323 39844 ft 410 kts 272°
2026-04-21 11:50 22.82578 49.83107 39845 ft 409 kts 272°
2026-04-21 11:51 22.82482 49.76977 39846 ft 409 kts 272°
2026-04-21 11:51 22.82383 49.70818 39842 ft 409 kts 272°
2026-04-21 11:52 22.82281 49.64656 39830 ft 409 kts 272°
2026-04-21 11:52 22.82175 49.58503 39837 ft 409 kts 272°
2026-04-21 11:53 22.82068 49.52350 39843 ft 409 kts 272°
2026-04-21 11:53 22.81957 49.46186 39844 ft 408 kts 272°
2026-04-21 11:54 22.81847 49.40041 39848 ft 408 kts 272°
2026-04-21 11:54 22.81754 49.34935 39850 ft 408 kts 272°
2026-04-21 11:55 22.81637 49.28775 39848 ft 408 kts 272°
2026-04-21 11:55 22.81519 49.22645 39850 ft 408 kts 272°
2026-04-21 11:56 22.81401 49.16485 39852 ft 408 kts 272°
2026-04-21 11:56 22.81276 49.10333 39853 ft 408 kts 271°
2026-04-21 11:57 22.81151 49.04180 39852 ft 408 kts 272°
2026-04-21 11:57 22.81022 48.98030 39858 ft 408 kts 272°
2026-04-21 11:58 22.80893 48.91892 39858 ft 407 kts 272°
2026-04-21 11:58 22.80760 48.85749 39852 ft 407 kts 271°
2026-04-21 11:59 22.80627 48.79623 39848 ft 406 kts 271°
2026-04-21 11:59 22.80490 48.73496 39849 ft 406 kts 271°
2026-04-21 12:00 22.80349 48.67381 39852 ft 406 kts 271°
2026-04-21 12:00 22.80207 48.61260 39846 ft 406 kts 271°
2026-04-21 12:01 22.80063 48.55141 39845 ft 406 kts 271°
2026-04-21 12:01 22.79918 48.49017 39848 ft 407 kts 271°
2026-04-21 12:02 22.79697 48.39836 39850 ft 407 kts 271°
2026-04-21 12:03 22.79545 48.33742 39854 ft 407 kts 271°
2026-04-21 12:03 22.79389 48.27561 39858 ft 408 kts 271°
2026-04-21 12:04 22.79232 48.21414 39857 ft 408 kts 271°
2026-04-21 12:04 22.79069 48.15280 39862 ft 408 kts 271°
2026-04-21 12:05 22.78909 48.09138 39859 ft 408 kts 271°
2026-04-21 12:05 22.78747 48.03036 39857 ft 407 kts 271°
2026-04-21 12:06 22.78580 47.96894 39854 ft 407 kts 271°
2026-04-21 12:06 22.78412 47.90763 39858 ft 407 kts 271°
2026-04-21 12:07 22.78242 47.84641 39853 ft 406 kts 271°
2026-04-21 12:07 22.78069 47.78537 39851 ft 406 kts 271°
2026-04-21 12:08 22.77895 47.72418 39849 ft 406 kts 271°
2026-04-21 12:08 22.77714 47.66304 39849 ft 405 kts 271°
2026-04-21 12:09 22.77537 47.60208 39840 ft 405 kts 271°
2026-04-21 12:09 22.77359 47.54108 39855 ft 405 kts 271°
2026-04-21 12:10 22.77174 47.48005 39854 ft 405 kts 270°
2026-04-21 12:10 22.76984 47.41911 39859 ft 405 kts 270°
2026-04-21 12:11 22.76796 47.35796 39859 ft 406 kts 270°
2026-04-21 12:11 22.76609 47.29690 39865 ft 406 kts 270°
2026-04-21 12:12 22.76417 47.23573 39867 ft 406 kts 270°
2026-04-21 12:12 22.76278 47.17460 39867 ft 405 kts 274°
2026-04-21 12:13 22.76716 47.11402 39864 ft 404 kts 276°
2026-04-21 12:13 22.77207 47.05334 39855 ft 404 kts 276°
2026-04-21 12:14 22.77684 46.99277 39858 ft 403 kts 276°
2026-04-21 12:14 22.78157 46.93221 39853 ft 403 kts 276°
2026-04-21 12:15 22.78629 46.87174 39842 ft 401 kts 276°
2026-04-21 12:15 22.79098 46.81161 39840 ft 400 kts 276°
2026-04-21 12:16 22.79564 46.75167 39835 ft 399 kts 276°
2026-04-21 12:16 22.80025 46.69194 39810 ft 399 kts 276°
2026-04-21 12:17 22.80485 46.63199 39815 ft 398 kts 276°
2026-04-21 12:17 22.80942 46.57229 39830 ft 398 kts 276°
2026-04-21 12:18 22.81393 46.51250 39824 ft 398 kts 276°
2026-04-21 12:18 22.81842 46.45269 39822 ft 398 kts 276°
2026-04-21 12:19 22.82291 46.39316 39825 ft 399 kts 275°
2026-04-21 12:19 22.82741 46.33306 39829 ft 400 kts 275°
2026-04-21 12:20 22.83186 46.27287 39835 ft 401 kts 275°
2026-04-21 12:20 22.83632 46.21214 39840 ft 402 kts 275°
2026-04-21 12:21 22.84078 46.15178 39835 ft 402 kts 275°
2026-04-21 12:21 22.84512 46.09177 39846 ft 402 kts 275°
2026-04-21 12:22 22.84953 46.03087 39850 ft 402 kts 275°
2026-04-21 12:22 22.85384 45.97063 39842 ft 401 kts 275°
2026-04-21 12:23 22.85816 45.91071 39841 ft 401 kts 275°
2026-04-21 12:23 22.86245 45.85048 39826 ft 401 kts 275°
2026-04-21 12:24 22.86674 45.79027 39829 ft 400 kts 275°
2026-04-21 12:24 22.87096 45.73024 39834 ft 400 kts 275°
2026-04-21 12:25 22.87519 45.67000 39823 ft 400 kts 275°
2026-04-21 12:25 22.87941 45.60978 39835 ft 400 kts 275°
2026-04-21 12:26 22.88358 45.54967 39833 ft 400 kts 275°
2026-04-21 12:26 22.88773 45.48956 39836 ft 400 kts 275°
2026-04-21 12:27 22.89187 45.42939 39844 ft 400 kts 275°
2026-04-21 12:27 22.89597 45.36926 39846 ft 400 kts 274°
2026-04-21 12:28 22.90005 45.30916 39850 ft 400 kts 274°
2026-04-21 12:28 22.90412 45.24899 39837 ft 400 kts 275°
2026-04-21 12:29 22.90815 45.18877 39840 ft 400 kts 274°
2026-04-21 12:29 22.91219 45.12871 39846 ft 400 kts 274°
2026-04-21 12:30 22.91618 45.06847 39851 ft 400 kts 274°
2026-04-21 12:30 22.92013 45.00817 39846 ft 400 kts 274°
2026-04-21 12:31 22.92410 44.94795 39855 ft 401 kts 274°
2026-04-21 12:31 22.92800 44.88761 39852 ft 401 kts 274°
2026-04-21 12:32 22.93191 44.82720 39852 ft 401 kts 274°
2026-04-21 12:32 22.93581 44.76678 39857 ft 402 kts 274°
2026-04-21 12:33 22.93969 44.70642 39859 ft 402 kts 274°
2026-04-21 12:33 22.94100 44.64594 39859 ft 402 kts 269°
2026-04-21 12:34 22.93815 44.58532 39861 ft 402 kts 269°
2026-04-21 12:34 22.93559 44.52457 39860 ft 403 kts 269°
2026-04-21 12:35 22.93300 44.46397 39862 ft 403 kts 269°
2026-04-21 12:35 22.93032 44.40338 39863 ft 403 kts 268°
2026-04-21 12:36 22.92761 44.34273 39859 ft 402 kts 268°
2026-04-21 12:36 22.92489 44.28220 39861 ft 403 kts 268°
2026-04-21 12:37 22.92212 44.22147 39862 ft 402 kts 268°
2026-04-21 12:37 22.91934 44.16077 39860 ft 402 kts 268°
2026-04-21 12:38 22.91656 44.10023 39862 ft 403 kts 268°
2026-04-21 12:38 22.91422 44.04977 39862 ft 403 kts 268°
2026-04-21 12:39 22.91135 43.98913 39859 ft 402 kts 268°
2026-04-21 12:39 22.90851 43.92855 39860 ft 402 kts 268°
2026-04-21 12:40 22.90565 43.86798 39860 ft 402 kts 268°
2026-04-21 12:40 22.90271 43.80732 39863 ft 402 kts 268°
2026-04-21 12:41 22.89980 43.74669 39865 ft 402 kts 268°
2026-04-21 12:41 22.89688 43.68624 39871 ft 402 kts 268°
2026-04-21 12:42 22.89390 43.62546 39871 ft 402 kts 268°
2026-04-21 12:42 22.89085 43.56491 39872 ft 402 kts 268°
2026-04-21 12:43 22.88783 43.50428 39871 ft 402 kts 268°
2026-04-21 12:43 22.88479 43.44376 39869 ft 402 kts 268°
2026-04-21 12:44 22.88173 43.38317 39869 ft 402 kts 268°
2026-04-21 12:44 22.87868 43.32269 39868 ft 402 kts 268°
2026-04-21 12:45 22.87553 43.26208 39867 ft 402 kts 268°
2026-04-21 12:45 22.87241 43.20170 39867 ft 402 kts 268°
2026-04-21 12:46 22.86926 43.14113 39866 ft 402 kts 268°
2026-04-21 12:46 22.86608 43.08068 39875 ft 402 kts 268°
2026-04-21 12:47 22.86289 43.02035 39897 ft 401 kts 268°
2026-04-21 12:47 22.86043 42.97427 39898 ft 401 kts 268°
2026-04-21 12:48 22.85718 42.91383 39906 ft 401 kts 268°
2026-04-21 12:48 22.85394 42.85352 39902 ft 402 kts 268°
2026-04-21 12:49 22.85065 42.79296 39903 ft 402 kts 268°
2026-04-21 12:49 22.84733 42.73240 39906 ft 402 kts 268°
2026-04-21 12:50 22.84398 42.67209 39906 ft 402 kts 268°
2026-04-21 12:50 22.84063 42.61147 39913 ft 402 kts 268°
2026-04-21 12:51 22.83726 42.55093 39922 ft 402 kts 268°
2026-04-21 12:51 22.83388 42.49058 39934 ft 401 kts 267°
2026-04-21 12:52 22.83046 42.43011 39932 ft 401 kts 267°
2026-04-21 12:52 22.82701 42.36972 39933 ft 402 kts 267°
2026-04-21 12:53 22.82354 42.30941 39932 ft 402 kts 267°
2026-04-21 12:53 22.82004 42.24884 39931 ft 402 kts 267°
2026-04-21 12:54 22.81656 42.18845 39932 ft 402 kts 267°
2026-04-21 12:54 22.81302 42.12800 39940 ft 402 kts 267°
2026-04-21 12:55 22.80944 42.06752 39944 ft 402 kts 267°
2026-04-21 12:55 22.80586 42.00707 39942 ft 402 kts 267°
2026-04-21 12:56 22.80226 41.94646 39943 ft 402 kts 267°
2026-04-21 12:56 22.79835 41.88599 39944 ft 402 kts 265°
2026-04-21 12:57 22.79242 41.82575 39942 ft 402 kts 265°
2026-04-21 12:57 22.78677 41.76553 39953 ft 402 kts 265°
2026-04-21 12:58 22.78104 41.70526 39952 ft 402 kts 265°
2026-04-21 12:58 22.77525 41.64507 39958 ft 402 kts 265°
2026-04-21 12:59 22.76942 41.58473 39958 ft 402 kts 265°
2026-04-21 12:59 22.76361 41.52473 39983 ft 401 kts 265°
2026-04-21 13:00 22.75774 41.46441 39986 ft 401 kts 265°
2026-04-21 13:00 22.75190 41.40446 39984 ft 402 kts 265°
2026-04-21 13:01 22.74501 41.34421 39993 ft 403 kts 262°
2026-04-21 13:01 22.73163 41.28501 39998 ft 406 kts 256°
2026-04-21 13:02 22.71186 41.22754 39992 ft 407 kts 252°
2026-04-21 13:02 22.68072 41.14215 40000 ft 407 kts 252°
2026-04-21 13:03 22.65986 41.08520 40002 ft 407 kts 252°
2026-04-21 13:03 22.63896 41.02831 40002 ft 407 kts 252°
2026-04-21 13:04 22.61804 40.97145 40000 ft 406 kts 252°
2026-04-21 13:04 22.59712 40.91459 39994 ft 407 kts 252°
2026-04-21 13:05 22.57620 40.85784 39996 ft 407 kts 252°
2026-04-21 13:05 22.55515 40.80089 39995 ft 407 kts 252°
2026-04-21 13:06 22.53417 40.74413 39997 ft 407 kts 252°
2026-04-21 13:06 22.51306 40.68713 40006 ft 407 kts 252°
2026-04-21 13:07 22.49196 40.63019 40008 ft 407 kts 252°
2026-04-21 13:07 22.48140 40.60170 39852 ft 407 kts 252°
2026-04-21 13:07 22.47104 40.57383 38956 ft 409 kts 252°
2026-04-21 13:08 22.46378 40.55433 38169 ft 411 kts 252°
2026-04-21 13:08 22.44952 40.51598 36611 ft 411 kts 252°
2026-04-21 13:08 22.43880 40.48714 35295 ft 414 kts 252°
2026-04-21 13:08 22.42810 40.45838 34325 ft 410 kts 252°
2026-04-21 13:09 22.41752 40.42999 33754 ft 406 kts 252°
2026-04-21 13:09 22.40693 40.40149 33389 ft 412 kts 252°
2026-04-21 13:09 22.39624 40.37276 32838 ft 412 kts 252°
2026-04-21 13:09 22.38563 40.34431 32311 ft 408 kts 252°
2026-04-21 13:10 22.37504 40.31599 31781 ft 403 kts 252°
2026-04-21 13:10 22.36459 40.28805 31261 ft 397 kts 252°
2026-04-21 13:10 22.35432 40.26060 30757 ft 392 kts 252°
2026-04-21 13:10 22.34417 40.23350 30250 ft 387 kts 252°
2026-04-21 13:11 22.33415 40.20671 29768 ft 382 kts 252°
2026-04-21 13:11 22.32428 40.18032 29272 ft 377 kts 252°
2026-04-21 13:11 22.31448 40.15416 28773 ft 374 kts 252°
2026-04-21 13:11 22.30479 40.12828 28308 ft 370 kts 251°
2026-04-21 13:12 22.29519 40.10266 27811 ft 369 kts 252°
2026-04-21 13:12 22.28556 40.07696 27325 ft 368 kts 251°
2026-04-21 13:12 22.27594 40.05138 26844 ft 368 kts 251°
2026-04-21 13:12 22.26570 40.02603 26350 ft 369 kts 247°
2026-04-21 13:13 22.25304 40.00198 25850 ft 370 kts 241°
2026-04-21 13:13 22.23867 39.97890 25385 ft 369 kts 240°
2026-04-21 13:13 22.22474 39.95626 25253 ft 357 kts 241°
2026-04-21 13:13 22.21127 39.93423 25146 ft 345 kts 241°
2026-04-21 13:14 22.19820 39.91281 24935 ft 339 kts 241°
2026-04-21 13:14 22.18525 39.89155 24689 ft 340 kts 241°
2026-04-21 13:14 22.17228 39.87029 24445 ft 340 kts 240°
2026-04-21 13:14 22.15923 39.84890 24188 ft 340 kts 240°
2026-04-21 13:15 22.14625 39.82765 23929 ft 340 kts 240°
2026-04-21 13:15 22.13322 39.80634 23581 ft 339 kts 240°
2026-04-21 13:15 22.12032 39.78528 23233 ft 335 kts 240°
2026-04-21 13:15 22.10758 39.76444 22876 ft 331 kts 240°
2026-04-21 13:16 22.09496 39.74383 22521 ft 328 kts 240°
2026-04-21 13:16 22.08246 39.72348 22181 ft 324 kts 240°
2026-04-21 13:16 22.07005 39.70327 21832 ft 321 kts 239°
2026-04-21 13:16 22.05784 39.68338 21504 ft 318 kts 239°
2026-04-21 13:17 22.04982 39.67031 21285 ft 315 kts 239°
2026-04-21 13:17 22.03370 39.64404 20835 ft 311 kts 239°
2026-04-21 13:17 22.02585 39.63128 20616 ft 309 kts 239°
2026-04-21 13:17 22.01397 39.61195 20304 ft 306 kts 239°
2026-04-21 13:18 22.00230 39.59295 19977 ft 303 kts 239°
2026-04-21 13:18 21.99073 39.57409 19648 ft 300 kts 239°
2026-04-21 13:18 21.97929 39.55544 19332 ft 296 kts 238°
2026-04-21 13:18 21.96801 39.53712 19027 ft 293 kts 238°
2026-04-21 13:19 21.95677 39.51887 18723 ft 290 kts 238°
2026-04-21 13:19 21.94569 39.50083 18418 ft 287 kts 239°
2026-04-21 13:19 21.93635 39.48201 18128 ft 283 kts 246°
2026-04-21 13:19 21.92806 39.46287 17833 ft 280 kts 245°
2026-04-21 13:20 21.91973 39.44401 17538 ft 278 kts 245°
2026-04-21 13:20 21.91139 39.42528 17249 ft 275 kts 245°
2026-04-21 13:20 21.90309 39.40670 16951 ft 275 kts 245°
2026-04-21 13:20 21.89481 39.38818 16687 ft 275 kts 245°
2026-04-21 13:21 21.88653 39.36966 16394 ft 275 kts 245°
2026-04-21 13:21 21.87829 39.35128 16222 ft 268 kts 244°
2026-04-21 13:21 21.87038 39.33357 16145 ft 258 kts 245°
2026-04-21 13:21 21.86276 39.31646 16001 ft 250 kts 245°
2026-04-21 13:22 21.85540 39.29994 15913 ft 241 kts 245°
2026-04-21 13:22 21.84835 39.28412 15815 ft 233 kts 245°
2026-04-21 13:22 21.84134 39.26844 15706 ft 229 kts 244°
2026-04-21 13:22 21.83439 39.25290 15602 ft 230 kts 244°
2026-04-21 13:23 21.82745 39.23736 15513 ft 231 kts 244°
2026-04-21 13:23 21.82032 39.22188 15397 ft 231 kts 240°
2026-04-21 13:23 21.81113 39.20767 15231 ft 233 kts 231°
2026-04-21 13:23 21.80030 39.19476 15061 ft 232 kts 230°
2026-04-21 13:24 21.78965 39.18194 14852 ft 230 kts 230°
2026-04-21 13:24 21.77913 39.16899 14693 ft 229 kts 231°
2026-04-21 13:24 21.76862 39.15598 14496 ft 229 kts 230°
2026-04-21 13:24 21.75818 39.14313 14328 ft 228 kts 230°
2026-04-21 13:25 21.74772 39.13031 14128 ft 227 kts 230°
2026-04-21 13:25 21.73732 39.11746 13971 ft 228 kts 230°
2026-04-21 13:25 21.72688 39.10462 13780 ft 226 kts 230°
2026-04-21 13:25 21.71651 39.09185 13612 ft 227 kts 230°
2026-04-21 13:26 21.70630 39.07932 13425 ft 226 kts 230°
2026-04-21 13:26 21.69588 39.06642 13261 ft 225 kts 230°
2026-04-21 13:26 21.68557 39.05371 13053 ft 228 kts 230°
2026-04-21 13:26 21.67460 39.04093 12816 ft 239 kts 219°
2026-04-21 13:27 21.65928 39.03354 12575 ft 250 kts 191°
2026-04-21 13:27 21.64175 39.03538 12330 ft 257 kts 166°
2026-04-21 13:27 21.62522 39.04199 12086 ft 257 kts 163°
2026-04-21 13:27 21.60862 39.04899 11837 ft 255 kts 163°
2026-04-21 13:28 21.59190 39.05591 11581 ft 254 kts 163°
2026-04-21 13:28 21.57558 39.06251 11326 ft 254 kts 163°
2026-04-21 13:28 21.55892 39.06915 11083 ft 251 kts 163°
2026-04-21 13:28 21.54259 39.07557 10851 ft 250 kts 164°
2026-04-21 13:29 21.52623 39.08197 10597 ft 250 kts 163°
2026-04-21 13:29 21.51008 39.08827 10349 ft 249 kts 163°
2026-04-21 13:29 21.49367 39.09475 10098 ft 248 kts 163°
2026-04-21 13:29 21.47773 39.10107 9967 ft 245 kts 163°
2026-04-21 13:30 21.46171 39.10743 9976 ft 247 kts 163°
2026-04-21 13:30 21.44555 39.11380 9975 ft 248 kts 163°
2026-04-21 13:30 21.42936 39.12017 9976 ft 248 kts 163°
2026-04-21 13:30 21.41321 39.12653 9906 ft 248 kts 163°
2026-04-21 13:31 21.39697 39.13294 9722 ft 252 kts 163°
2026-04-21 13:31 21.38054 39.13947 9460 ft 250 kts 162°
2026-04-21 13:31 21.36431 39.14591 9227 ft 246 kts 162°
2026-04-21 13:31 21.34852 39.15216 9155 ft 236 kts 162°
2026-04-21 13:32 21.33338 39.15816 8959 ft 228 kts 162°
2026-04-21 13:32 21.31876 39.16398 8801 ft 222 kts 163°
2026-04-21 13:32 21.30424 39.16969 8555 ft 221 kts 163°
2026-04-21 13:32 21.28981 39.17538 8339 ft 220 kts 163°
2026-04-21 13:33 21.27547 39.18100 8073 ft 220 kts 163°
2026-04-21 13:33 21.26121 39.18670 7823 ft 220 kts 159°
2026-04-21 13:33 21.24898 39.19680 7554 ft 226 kts 127°
2026-04-21 13:33 21.24370 39.21269 7300 ft 232 kts 93°
2026-04-21 13:34 21.24675 39.22954 7026 ft 233 kts 70°
2026-04-21 13:34 21.25299 39.24535 6765 ft 233 kts 66°
2026-04-21 13:34 21.25952 39.26121 6669 ft 224 kts 67°
2026-04-21 13:34 21.26539 39.27590 6564 ft 205 kts 63°
2026-04-21 13:35 21.27456 39.28699 5994 ft 198 kts 26°
2026-04-21 13:35 21.28762 39.28977 5618 ft 193 kts 348°
2026-04-21 13:35 21.29998 39.28527 5520 ft 191 kts 334°
2026-04-21 13:35 21.31255 39.28007 5376 ft 191 kts 336°
2026-04-21 13:36 21.32511 39.27534 5196 ft 190 kts 337°
2026-04-21 13:36 21.33746 39.27072 4995 ft 190 kts 337°
2026-04-21 13:36 21.34986 39.26603 4803 ft 188 kts 337°
2026-04-21 13:36 21.36213 39.26134 4608 ft 187 kts 337°
2026-04-21 13:37 21.37437 39.25671 4429 ft 186 kts 336°
2026-04-21 13:37 21.38643 39.25192 4246 ft 186 kts 336°
2026-04-21 13:37 21.39854 39.24712 4052 ft 184 kts 336°
2026-04-21 13:37 21.41058 39.24243 3873 ft 183 kts 336°
2026-04-21 13:38 21.42251 39.23768 3671 ft 182 kts 336°
2026-04-21 13:38 21.43437 39.23302 3506 ft 181 kts 336°
2026-04-21 13:38 21.44615 39.22832 3310 ft 181 kts 336°
2026-04-21 13:38 21.45794 39.22368 3126 ft 179 kts 337°
2026-04-21 13:39 21.46961 39.21910 2982 ft 178 kts 337°
2026-04-21 13:39 21.48121 39.21453 2985 ft 179 kts 336°
2026-04-21 13:39 21.49286 39.20990 2977 ft 178 kts 337°
2026-04-21 13:39 21.50449 39.20533 2977 ft 178 kts 336°
2026-04-21 13:40 21.51614 39.20066 2977 ft 178 kts 336°
2026-04-21 13:40 21.52775 39.19608 2963 ft 178 kts 336°
2026-04-21 13:40 21.53938 39.19149 2754 ft 177 kts 336°
2026-04-21 13:40 21.55086 39.18695 2505 ft 174 kts 336°
2026-04-21 13:41 21.56199 39.18256 2278 ft 166 kts 336°
2026-04-21 13:41 21.57224 39.17849 2070 ft 147 kts 336°
2026-04-21 13:41 21.58137 39.17487 1876 ft 135 kts 336°
2026-04-21 13:41 21.59007 39.17144 1708 ft 131 kts 336°
2026-04-21 13:42 21.59856 39.16806 1526 ft 129 kts 336°
2026-04-21 13:42 21.60690 39.16477 1363 ft 127 kts 337°
2026-04-21 13:42 21.61509 39.16153 1198 ft 126 kts 338°
2026-04-21 13:42 21.62334 39.15828 1028 ft 125 kts 338°
2026-04-21 13:43 21.63154 39.15501 869 ft 126 kts 338°
2026-04-21 13:43 21.63971 39.15155 720 ft 125 kts 336°
2026-04-21 13:43 21.64789 39.14835 540 ft 126 kts 338°
2026-04-21 13:43 21.65616 39.14513 335 ft 128 kts 338°
2026-04-21 13:44 21.66466 39.14181 181 ft 130 kts 338°
2026-04-21 13:44 21.67317 39.13848 48 ft 128 kts 338°
2026-04-21 13:44 21.68021 39.13573 37 ft 89 kts 340°
2026-04-21 13:44 21.68511 39.13381 34 ft 58 kts 339°
2026-04-21 13:45 21.68811 39.13264 33 ft 39 kts 340°
2026-04-21 13:45 21.68987 39.13199 33 ft 21 kts 345°
2026-04-21 13:45 21.69130 39.13190 31 ft 20 kts
2026-04-21 13:45 21.69237 39.13210 31 ft 11 kts 12°
2026-04-21 13:46 21.69270 39.13218 31 ft 0 kts 12°
2026-04-21 13:46 21.69271 39.13218 31 ft 1 kts 12°
2026-04-21 13:47 21.69327 39.13234 31 ft 13 kts 29°
2026-04-21 13:47 21.69369 39.13300 31 ft 10 kts 70°
2026-04-21 13:47 21.69353 39.13362 31 ft 11 kts 140°
2026-04-21 13:47 21.69265 39.13401 31 ft 17 kts 160°
2026-04-21 13:48 21.69138 39.13449 32 ft 22 kts 160°
2026-04-21 13:48 21.68996 39.13504 32 ft 21 kts 160°
2026-04-21 13:48 21.68845 39.13565 33 ft 25 kts 159°
2026-04-21 13:48 21.68684 39.13629 34 ft 23 kts 160°
2026-04-21 13:49 21.68567 39.13675 34 ft 18 kts 160°
2026-04-21 13:49 21.68433 39.13727 35 ft 21 kts 160°
2026-04-21 13:49 21.68299 39.13781 35 ft 16 kts 159°
2026-04-21 13:49 21.68259 39.13870 36 ft 16 kts 73°
2026-04-21 13:50 21.68301 39.13993 35 ft 20 kts 70°
2026-04-21 13:50 21.68353 39.14142 34 ft 23 kts 69°
2026-04-21 13:50 21.68410 39.14309 33 ft 25 kts 70°
2026-04-21 13:50 21.68468 39.14481 32 ft 22 kts 70°
2026-04-21 13:51 21.68524 39.14646 31 ft 25 kts 69°
2026-04-21 13:51 21.68583 39.14810 31 ft 20 kts 69°
2026-04-21 13:51 21.68636 39.14960 30 ft 23 kts 69°
2026-04-21 13:51 21.68695 39.15128 30 ft 25 kts 70°
2026-04-21 13:52 21.68748 39.15290 29 ft 23 kts 70°
2026-04-21 13:52 21.68806 39.15456 29 ft 20 kts 69°
2026-04-21 13:52 21.68831 39.15527 29 ft 0 kts 69°
2026-04-21 13:53 21.68845 39.15566 29 ft 10 kts 69°
2026-04-21 13:53 21.68874 39.15648 29 ft 12 kts 75°
2026-04-21 13:53 21.68837 39.15720 30 ft 14 kts 158°
2026-04-21 13:54 21.68726 39.15763 30 ft 20 kts 160°
2026-04-21 13:54 21.68606 39.15809 31 ft 10 kts 160°
2026-04-21 13:54 21.68522 39.15841 31 ft 16 kts 160°
2026-04-21 13:54 21.68404 39.15887 32 ft 21 kts 160°
2026-04-21 13:55 21.68255 39.15946 32 ft 25 kts 159°
2026-04-21 13:55 21.68105 39.16006 33 ft 20 kts 160°
2026-04-21 13:55 21.67960 39.16064 34 ft 24 kts 160°
2026-04-21 13:55 21.67813 39.16122 34 ft 15 kts 160°
2026-04-21 13:56 21.67707 39.16164 35 ft 17 kts 160°
2026-04-21 13:56 21.67654 39.16243 35 ft 15 kts 81°
2026-04-21 13:56 21.67688 39.16366 35 ft 19 kts 70°
2026-04-21 13:56 21.67739 39.16507 35 ft 22 kts 69°
2026-04-21 13:57 21.67794 39.16667 34 ft 21 kts 70°
2026-04-21 13:57 21.67796 39.16787 35 ft 17 kts 133°
2026-04-21 13:57 21.67680 39.16842 36 ft 21 kts 158°
2026-04-21 13:57 21.67545 39.16902 36 ft 16 kts 157°
2026-04-21 13:58 21.67513 39.16916 37 ft 0 kts 157°
2026-04-21 13:58 21.67508 39.16918 37 ft 1 kts 157°
2026-04-21 13:58 21.67503 39.16920 37 ft 1 kts 157°
2026-04-21 13:58 21.67500 39.16922 37 ft 0 kts 157°
2026-04-21 13:59 21.67489 39.16927 37 ft 5 kts 157°
2026-04-21 13:59 21.67436 39.16950 37 ft 12 kts 157°
2026-04-21 13:59 21.67341 39.16998 37 ft 16 kts 155°
2026-04-21 13:59 21.67269 39.17007 38 ft 10 kts 167°
2026-04-21 14:00 21.67242 39.17023 38 ft 1 kts 140°
2026-04-21 14:00 21.67225 39.17039 38 ft 3 kts 139°
2026-04-21 14:00 21.67216 39.17048 38 ft 2 kts 139°
2026-04-21 14:00 21.67213 39.17050 38 ft 0 kts 139°